546  
ASUS42 KTAE 222216  
RWRTAE  
RWRTAE  
NORTH FLORIDA/SOUTH ALABAMA/SOUTHWEST GEORGIA WEATHER ROUNDUP  
NATIONAL WEATHER SERVICE TALLAHASSEE FLORIDA  
500 PM EST WED JAN 22 2020  
 
NOTE: "FAIR" INDICATES FEW OR NO CLOUDS BELOW 12,000 FEET WITH NO  
SIGNIFICANT WEATHER AND/OR S TO VISIBILITY
.  
 
!FLZ017-115-028-034-025-222300   
..NORTH FLORIDA
 
 
 
CITY SKY/WX TMP DP RH WIND PRES REMARKS
 
TALL INTL ARPT CLOUDY 58 31 35 NE7 30.19R  
FSU LOVE BLDG N/A 57 32 38 NE5 N/A  
APALACHICOLA FAIR 58 32 37 N7 30.17F  
PERRY FAIR 60 34 38 E10G16 30.18S  
CROSS CITY CLOUDY 59 40 49 N12 30.16R  
JACKSONVILLE MOCLDY 50 37 62 NE16 30.19F WCI 44  

 
 
!FLZ112-006-005-002-011-222300   
..FLORIDA PANHANDLE
 
 
 
CITY SKY/WX TMP DP RH WIND PRES REMARKS
 
MARIANNA FAIR 53 29 39 NE8 30.21S  
BONIFAY FAIR 54 30 40 NE7 30.22S  
PANAMA CITY NW FAIR 54 31 41 N6 30.19S  
TYNDALL AFB FAIR 55 32 42 N6 30.19S  
TYND DRONE APT FAIR 55 33 42 N8 30.19S  
DE FUNIAK SPR FAIR 51 29 42 NE3 30.22S  
EGLIN AFB FAIR 52 25 34 N5 30.20  
DESTIN FAIR 53 29 39 N5 30.21F  
HURLBURT PTSUNNY 52 25 34 N6 30.20F  
CRESTVIEW FAIR 52 27 38 CALM 30.23F  
PENSACOLA FAIR 51 21 30 N6 30.23S  

 
 
!ALZ063-066-222300   
..SOUTH ALABAMA
 
 
 
CITY SKY/WX TMP DP RH WIND PRES REMARKS
 
DOTHAN FAIR 54 28 36 NE7 30.25S  
OZARK CAIRNS PTSUNNY 54 29 39 NE6 30.21S  
FT RUCKER HELI CLOUDY 54 30 40 CALM 30.21F  
RUCKER HELI 3 CLOUDY 54 28 37 MISG 30.20F  
RUCKER HELI 2 FAIR 54 28 37 E7 30.20F  
FLORALA APT FAIR 52 29 41 E3 30.23F  
ANDALUSIA FAIR 54 28 36 CALM 30.22  
TROY FAIR 53 28 38 NE5 30.22F  
EUFALA NOT AVBL  
MOBILE CLOUDY 49 16 26 CALM 30.24F  

 
 
!GAZ120>161-222300   
..SOUTHWEST AND SOUTH CENTRAL GEORGIA
 
 
 
CITY SKY/WX TMP DP RH WIND PRES REMARKS
 
THOMASVILLE FAIR 54 28 37 NE6 30.22S  
BAINBRIDGE FAIR 53 26 35 NE8 30.23S  
MOODY AFB FAIR 55 25 31 NE10 30.19  
VALDOSTA FAIR 56 27 32 NE9 30.21R  
MOULTRIE FAIR 52 27 37 NE6 30.23R  
BLAKELY FAIR 52 23 32 E5 30.24R  
ALBANY FAIR 54 22 28 N8 30.25F  
TIFTON FAIR 53 24 31 N6 30.22  
FITZGERALD FAIR 54 24 31 NE5 30.26R  
CORDELE FAIR 52 15 23 NE6 30.26R  
AMERICUS FAIR 54 19 26 E6 30.26R  
HOMERVILLE PTSUNNY 54 27 35 N5 30.22R  

 
 
!GMZ750-755-770-775-222300   
..COASTAL AND BUOY OBS
 
 
 
STATION/POSITION TIME TEMP WIND PRES VSBY WAVE
 
AIR SEA DIR/SP/G HT/PER  
(UTC) (F) (DEG/KT/KT) (MB) (MI) (FT/S)  
KEATON BEACH 2200 58 20/ 7/ 10 1021.7R  
CEDAR KEY 2200 58 40/ 8/ 10 1020.8F  
C TOWER 2200 52 340/ 7/ 9 1021.7F  
APALACHICOLA BUO 2200 55 10/ 14/ 19 1021.5  
PANAMA CITY BUOY 2200 40/ 10/ 14 1021.4  
MOBILE BUOY 2200 55 60/ 8/ 14 1023.1  
ORANGE BCH AL BU 2200 48 63 10/ 6/ 10 1023.8  

 
 
 
CLICK HERE TO GO TO PREVIOUS BULLETINS.

The Nexlab FL Page
The Nexlab GA Page
The Nexlab AL Page Main Text Page